User: anonymous
Location: Stigler
(35.2540°N, 95.1230°W)
Time: 22:11:41
(UTC-05:00)
Language:

Cosmos 1805 - Orbit

View from above orbital plane
View from above orbital plane
View from above satellite
View from above satellite

Ground track
Ground track

The orbit data is extracted from the following two-line orbital elements,

1 17191U 86097A   14109.14292761  .00007887  00000-0  52348-3 0  8710
2 17191 082.5006 083.1201 0011068 056.5691 303.6594 15.07057428489331
Epoch (UTC): 19 April 2014 03:25:48
Eccentricity: 0.0011068
inclination: 82.5006°
perigee height: 537 km
apogee height: 553 km
right ascension of ascending node: 83.1201°
argument of perigee: 56.5691°
revolutions per day: 15.07057428
mean anomaly at epoch: 303.6594°
orbit number at epoch: 48933

The dashed part of the orbit path shows where the satellite is in the earth's shadow,  

DLR